Regional Weather Roundup
Issued by NWS

Home | Current Version | Previous Version | Text Only | Print | Product List | Glossary On
Versions: 1 2 3 4 5 6 7 8 9 10 11 12 13 14 15 16 17 18 19 20 21 22 23 24 25 26 27 28 29 30 31 32 33 34 35 36 37 38 39 40 41 42 43 44 45 46 47 48 49 50
000
ASUS45 KTFX 070810
RWRMT
MONTANA REGIONAL WEATHER ROUNDUP
NATIONAL WEATHER SERVICE GREAT FALLS MT
200 AM MDT TUE JUL 07 2015

NOTE: "FAIR" INDICATES FEW OR NO CLOUDS BELOW 12000 FEET WITH NO
SIGNIFICANT WEATHER AND/OR OBSTRUCTIONS TO VISIBILITY.

MTZ001>007-043-070900-
WEST OF THE DIVIDE

CITY           SKY/WX    TMP DP  RH WIND       PRES   REMARKS
KALISPELL      MOSUNNY   50  42  74 CALM      30.02S
MISSOULA       MOCLDY    57  35  43 S5        30.06R
BUTTE          CLEAR     52  36  54 SE7       30.19S
MULLAN PASS    CLOUDY    64  37  36 SE5       30.18F
DEER LODGE       N/A     54  34  47 CALM      30.17S
EUREKA           N/A     66  45  45 NE3       30.02R
HAMILTON         N/A     59  41  51 S6        30.07S
LIBBY            N/A     63  43  48 CALM      30.00S
PLAINS           N/A     60  46  59 CALM      30.01S
THOMPSON FALLS   N/A     63  46  53 CALM      30.04S
$$

MTZ008-052>055-070900-
SOUTHWEST MONTANA

CITY           SKY/WX    TMP DP  RH WIND       PRES   REMARKS
BOZEMAN        CLEAR     60  49  66 SW5       30.12S
DILLON         CLEAR     59  49  69 S5        30.15S
W YELLOWSTONE  CLOUDY    54  50  87 CALM      30.23S
THREE FORKS      N/A     57  57 100 CALM      30.10S
$$

MTZ009-010-012-014-046-048-049-054-070900-
EAST SLOPES AND CENTRAL MONTANA

CITY           SKY/WX    TMP DP  RH WIND       PRES   REMARKS
CUT BANK       CLEAR     54  47  77 SE7       30.08F
GREAT FALLS    PTCLDY    54  50  86 CALM      30.08F
MALMSTROM AFB  PTCLDY    53  51  94 SW6       30.08F
HELENA         CLEAR     59  50  72 CALM      30.09S
CONRAD           N/A     51  51 100 E2        30.09F
$$

MTZ011-013-016-021-045-047-050-051-070900-
NORTH CENTRAL MONTANA

CITY           SKY/WX    TMP DP  RH WIND       PRES   REMARKS
HAVRE          CLEAR     58  51  78 E3        30.04F
LEWISTOWN      CLEAR     52  47  83 S7        30.10F
CHINOOK          N/A     55  50  82 NE3       30.06S
FORT BENTON      N/A     55  50  82 S3        30.06F
$$

MTZ017>020-022>027-061-062-070900-
NORTHEAST MONTANA

CITY           SKY/WX    TMP DP  RH WIND       PRES   REMARKS
GLASGOW        CLEAR     55  47  74 E12       30.09F
JORDAN           N/A     57  46  66 E6        30.10F
SIDNEY         PTCLDY    57  50  77 CALM      30.16F
WOLF POINT     CLOUDY    56  50  80 NE5       30.12F HAZE
MALTA            N/A     58  45  62 CALM      30.03F
PLENTYWOOD       N/A     52  45  76 E6        30.14F
POPLAR           N/A     57  52  82 E5        30.13F
SCOBEY           N/A     53  43  69 SE2       30.11F
$$

MTZ028>42-056>058-070900-
SOUTHCENTRAL AND SOUTHEAST MONTANA

CITY           SKY/WX    TMP DP  RH WIND       PRES   REMARKS
BAKER          MOCLDY    55  51  86 SE12      30.18F
BILLINGS       CLEAR     59  51  75 CALM      30.11F
LIVINGSTON     CLEAR     52  46  80 VRB5      30.14F
MILES CITY     CLEAR     57  49  74 S6        30.11F
EKALAKA          N/A     54  46  74 SE8       30.14F
FORSYTH          N/A     57  52  82 CALM      30.10S
LAUREL           N/A     58  50  75 N5        30.08F
ROUNDUP          N/A     58  46  64 CALM      30.01F
$$

REGIONAL REPORTS...DAKOTAS

CITY           SKY/WX    TMP DP  RH WIND       PRES   REMARKS
WILLISTON      CLEAR     53  48  83 CALM      30.16F
MINOT          CLEAR     50  44  80 S5        30.17S
DICKINSON      CLEAR     50  48  93 SE8       30.18F FOG
BEACH          CLOUDY    52  52 100 SE9       30.18F FOG
CROSBY         FAIR      50  50 100 S9        30.16F
BISMARCK       CLEAR     51  48  89 NE3       30.20F
GRAND FORKS    CLEAR     45  43  93 W3        30.16S
FARGO          CLEAR     48  43  82 CALM      30.18R
BUFFALO SD       N/A     54  50  86 SE9       30.13F
RAPID CITY     MOCLDY    59  56  89 CALM      30.19F
$$

REGIONAL REPORTS...WYOMING/IDAHO/WASHINGTON

CITY           SKY/WX    TMP DP  RH WIND       PRES   REMARKS
GILLETTE       CLEAR     53  50  89 S9        30.17F
SHERIDAN       CLEAR     51  48  89 N3        30.14F
BUFFALO WY     PTCLDY    52  50  93 SW5       30.18F
CODY           PTCLDY    55  50  82 CALM      30.15S
YELLOWSTONE LA   N/A     51  49  92 CALM      30.34S
IDAHO FALLS    MOCLDY    62  52  69 E3        30.12F
SALMON         CLEAR     61  46  59 CALM      30.09R
BOISE          CLOUDY    78  48  34 SE6       29.95F
SPOKANE        MOCLDY    77  44  30 NE5       29.93S
$$

REGIONAL REPORTS...ALBERTA

CITY           SKY/WX    TMP DP  RH WIND       PRES   REMARKS
EDMONTON       CLEAR     52  43  71 N7        30.10R
CALGARY        LGT RAIN  57  52  82 W9        30.14F
LETHBRIDGE     MOCLDY    59  52  77 N13G24    30.07R
MEDICINE HAT   MOCLDY    57  46  67 N7        30.06R
WATERTON GATE    N/A     57  48  72 N2          N/A
CARDSTON         N/A     55  52  88 NW12G17     N/A
ONEFOUR          N/A     54  46  76 E7          N/A
$$

REGIONAL REPORTS...SASKATCHEWAN

CITY           SKY/WX    TMP DP  RH WIND       PRES   REMARKS
SWIFT CURRENT  PTCLDY    54  48  82 S8        30.08S
REGINA         PTCLDY    50  43  76 S9        30.11F
SASKATOON      PTCLDY    54  46  76 S9        30.04F
CYPRESS HILLS    N/A     52  41  66 S3          N/A
VAL MARIE        N/A     52  46  82 S5          N/A
ROCKGLEN         N/A     50  46  87 SE10        N/A
$$



USA.gov is the U.S. government's official web portal to all federal, state and local government web resources and services.